DW9584 Weather Reports


time (UTC)temp
C
wind
direction
speed
KPH
gust
KPH
rain 1hr
cm
rain 24hr
cm
rain mn
cm
humidity
%
barometer
mb
20260906083023 16 264 0.0 0.0 0.00 0.00 0.00 89 1012.4
20260906081539 16 265 0.0 3.2 0.00 0.00 0.00 89 1012.4
20260906080018 17 264 0.0 0.0 0.00 0.00 0.00 88 1012.4
20260906074513 17 264 0.0 0.0 0.00 0.00 0.00 88 1012.4
20260906073012 17 264 0.0 0.0 0.00 0.00 0.00 87 1012.3
20260906071531 17 265 0.0 0.0 0.00 0.00 0.00 87 1012.5
20260906070032 17 265 0.0 0.0 0.00 0.00 0.00 87 1012.3
20260906064530 17 265 0.0 0.0 0.00 0.00 0.00 87 1012.4
20260906063031 17 265 0.0 0.0 0.00 0.00 0.00 87 1012.5
20260906061534 17 264 0.0 0.0 0.00 0.00 0.00 86 1012.5
20260906060023 17 264 0.0 0.0 0.00 0.00 0.00 86 1012.7
20260906054520 17 264 0.0 3.2 0.00 0.00 0.00 87 1012.7
20260906053017 17 264 0.0 0.0 0.00 0.00 0.00 88 1012.8
20260906051532 17 264 0.0 0.0 0.00 0.00 0.00 88 1012.9
20260906050033 17 264 0.0 0.0 0.00 0.00 0.00 88 1012.9
20260906044535 17 264 0.0 0.0 0.00 0.00 0.00 88 1012.9
20260906043029 17 264 0.0 0.0 0.00 0.00 0.00 88 1012.9
20260906041528 17 264 0.0 0.0 0.00 0.00 0.00 87 1012.9
20260906040033 18 265 0.0 0.0 0.00 0.03 0.00 87 1012.9
20260906034524 18 264 0.0 0.0 0.00 0.05 0.03 86 1012.8
20260906033019 18 264 0.0 0.0 0.00 0.30 0.03 85 1012.9
20260906031531 18 265 0.0 0.0 0.00 0.30 0.03 83 1012.8
20260906030011 18 265 0.0 0.0 0.00 0.30 0.03 83 1012.7
20260906024508 18 265 0.0 0.0 0.00 0.30 0.03 83 1012.7
20260906023005 18 264 0.0 0.0 0.00 0.30 0.03 82 1012.7
20260906021505 19 265 0.0 0.0 0.00 0.30 0.03 81 1012.6
20260906020031 19 265 0.0 0.0 0.00 0.30 0.03 81 1012.5
20260906014529 18 265 0.0 0.0 0.00 0.30 0.03 82 1012.4
20260906013036 18 265 0.0 0.0 0.00 0.30 0.03 82 1012.3
20260906011516 19 264 0.0 0.0 0.00 0.30 0.03 81 1012.1
20260906010013 19 264 0.0 0.0 0.00 0.30 0.03 79 1012.0
20260906004512 20 264 0.0 0.0 0.00 0.30 0.03 78 1011.9
20260906003008 20 264 0.0 0.0 0.00 0.30 0.03 77 1011.8
20260906001533 20 265 0.0 0.0 0.00 0.30 0.03 77 1011.6
20260906000030 21 265 0.0 0.0 0.00 0.30 0.03 76 1011.5
20260905234524 21 265 0.0 0.0 0.00 0.30 0.03 72 1011.3
20260905233030 22 265 0.0 0.0 0.00 0.30 0.03 67 1011.1
20260905231518 22 264 0.0 0.0 0.00 0.30 0.03 67 1011.1
20260905230018 23 248 0.0 3.2 0.00 0.30 0.03 63 1011.0
20260905224512 23 243 0.0 1.6 0.00 0.30 0.03 62 1011.0
20260905223028 23 197 0.0 3.2 0.00 0.30 0.03 63 1010.9
20260905221542 24 176 0.0 3.2 0.00 0.30 0.03 59 1010.8
20260905220030 25 268 1.6 8.0 0.00 0.30 0.03 55 1010.6
20260905214528 25 300 0.0 9.7 0.00 0.30 0.03 51 1010.6
20260905213028 25 30 1.6 6.4 0.00 0.30 0.03 55 1010.5
20260905211539 25 284 0.0 9.7 0.00 0.30 0.03 53 1010.6
20260905210021 25 340 0.0 6.4 0.00 0.30 0.03 56 1010.4
20260905204514 26 276 0.0 6.4 0.00 0.30 0.03 56 1010.4
20260905203037 26 73 0.0 6.4 0.00 0.30 0.03 55 1010.4
20260905201537 26 272 0.0 8.0 0.00 0.30 0.03 54 1010.5
20260905200048 26 51 0.0 9.7 0.00 0.30 0.03 55 1010.7
20260905194534 26 330 0.0 3.2 0.00 0.30 0.03 59 1010.8
20260905193029 25 139 1.6 6.4 0.00 0.30 0.03 57 1010.9
20260905191526 26 319 1.6 8.0 0.00 0.30 0.03 53 1011.1
20260905190025 25 72 1.6 8.0 0.00 0.30 0.03 60 1011.1
20260905184502 25 126 0.0 6.4 0.00 0.30 0.03 57 1011.2
20260905183016 25 229 0.0 6.4 0.00 0.30 0.03 61 1011.2
20260905181516 25 240 0.0 3.2 0.00 0.30 0.03 58 1011.3
20260905180010 25 351 0.0 3.2 0.00 0.30 0.03 61 1011.4
20260905174508 25 101 1.6 6.4 0.00 0.30 0.03 59 1011.6
20260905173009 26 310 1.6 6.4 0.00 0.30 0.03 60 1011.7
20260905171511 25 229 3.2 8.0 0.00 0.30 0.03 56 1011.6
20260905170003 25 260 3.2 8.0 0.00 0.30 0.03 58 1011.7
20260905164503 25 264 1.6 6.4 0.00 0.30 0.03 67 1011.7
20260905163025 25 360 1.6 3.2 0.00 0.30 0.03 61 1012.0
20260905161521 25 64 0.0 6.4 0.00 0.30 0.03 61 1012.1
20260905160027 24 219 0.0 6.4 0.00 0.30 0.03 68 1012.2
20260905154548 23 186 0.0 12.9 0.00 0.30 0.03 69 1012.2
20260905153012 24 243 0.0 9.7 0.00 0.30 0.03 69 1012.3
20260905151505 23 127 1.6 4.8 0.00 0.30 0.03 71 1012.3
20260905150006 23 228 0.0 6.4 0.00 0.30 0.03 74 1012.4
20260905144504 22 283 0.0 4.8 0.00 0.30 0.03 76 1012.2
20260905143025 22 65 0.0 8.0 0.00 0.30 0.03 77 1012.2
20260905141524 22 318 0.0 3.2 0.00 0.30 0.03 81 1012.2
20260905140024 21 213 0.0 4.8 0.00 0.30 0.03 83 1012.1
20260905134516 21 267 0.0 6.4 0.00 0.30 0.03 86 1012.0
20260905133010 21 269 0.0 4.8 0.00 0.30 0.03 87 1011.9
20260905131510 20 79 0.0 3.2 0.00 0.30 0.03 91 1011.7
20260905130012 20 79 0.0 1.6 0.00 0.30 0.03 94 1011.8
20260905124540 20 79 0.0 1.6 0.00 0.30 0.03 95 1012.0
20260905123028 19 79 0.0 3.2 0.00 0.30 0.03 95 1012.0
20260905121524 19 53 0.0 3.2 0.00 0.30 0.03 96 1011.9
20260905120027 19 250 0.0 3.2 0.00 0.30 0.03 96 1012.0
20260905114517 20 101 0.0 3.2 0.00 0.30 0.03 96 1011.9
20260905113014 20 101 0.0 3.2 0.00 0.30 0.03 96 1011.5
20260905111514 20 46 0.0 1.6 0.00 0.30 0.03 96 1011.4
20260905110031 20 46 0.0 0.0 0.00 0.30 0.03 96 1011.2
20260905104541 20 46 0.0 3.2 0.00 0.30 0.03 96 1011.1
20260905103033 20 46 0.0 0.0 0.00 0.30 0.03 96 1011.0
20260905101526 20 46 0.0 0.0 0.00 0.30 0.03 96 1010.9
20260905100029 20 46 0.0 0.0 0.00 0.30 0.03 96 1010.8
20260905094504 20 46 0.0 0.0 0.00 0.30 0.03 96 1010.8
20260905093003 20 46 0.0 3.2 0.00 0.30 0.03 96 1010.8
20260905091502 20 46 0.0 0.0 0.00 0.30 0.03 96 1010.9
20260905090003 20 46 0.0 0.0 0.00 0.30 0.03 96 1010.9
20260905084506 21 46 0.0 0.0 0.00 0.30 0.03 96 1010.8